De Queen, AR

11:02 PM CST on January 24, 2020 (GMT -0600)
Helms Sevier County

Weather History for KDEQ - October, 2019

Change the Weather History Date:

Wednesday, October 16, 2019

  Actual Average Record
Temperature  
Mean Temperature 56 °F 63 °F  
Max Temperature 68 °F 76 °F 90 °F (1953)
Min Temperature 45 °F 50 °F 28 °F (1952)
Degree Days  
Heating Degree Days 8 4  
Month to date heating degree days 47 41  
Since 1 July heating degree days 47 50  
Cooling Degree Days 0 2  
Month to date cooling degree days 92 46  
Year to date cooling degree days 2309 1911  
Growing Degree Days 6 (Base 50)    
Moisture  
Dew Point 43 °F    
Average Humidity 59    
Maximum Humidity 89    
Minimum Humidity 37    
Precipitation  
Precipitation 0.00 in 0.15 in 2.12 in (2006)
Month to date precipitation 0.81 2.34  
Year to date precipitation 42.90 37.54  
Snow  
Snow 0.00 in - - ()
Month to date snowfall 0.0  
Since 1 July snowfall 0.0  
Since 1 September snowfall 0.0  
Snow Depth 0.00 in    
Sea Level Pressure  
Sea Level Pressure 30.08 in    
Wind  
Wind Speed 3 mph ()    
Max Wind Speed 10 mph    
Max Gust Speed 17 mph    
Visibility 10.0 miles    
Events      
T = Trace of Precipitation, MM = Missing Value Source: Averaged Metar Reports

Daily Weather History Graph

Daily Weather History Graph

Search for Another Location

Airport or City:

Astronomy

Oct. 16, 2019 Rise Set
Actual Time 7:23 AM CDT 6:42 PM CDT
Civil Twilight 6:58 AM CDT 7:07 PM CDT
Nautical Twilight 6:29 AM CDT 7:36 PM CDT
Astronomical Twilight 6:00 AM CDT 8:05 PM CDT
Moon 8:42 PM CDT (10/16) 9:49 AM CDT (10/16)
Length of Visible Light 12h 09m
Length of Day
11h 19m
Waning Gibbous, 92% of the Moon is Illuminated
Oct 16
Waning Gibbous
Oct 21
Last Quarter
Oct 27
New
Nov 4
First Quarter
Nov 12
Full

Hourly Weather History & Observations

Time (CDT) Temp. Dew Point Humidity Pressure Visibility Wind Dir Wind Speed Gust Speed Precip Events Conditions
2:53 AM 61.0 °F 44.1 °F 54% 30.01 in 10.0 mi NNE 3.5 mph - N/A   Clear
3:53 AM 59.0 °F 41.0 °F 51% 30.01 in 10.0 mi North 5.8 mph - N/A   Clear
4:53 AM 57.0 °F 39.9 °F 53% 30.02 in 10.0 mi North 4.6 mph - N/A   Clear
5:53 AM 55.0 °F 37.9 °F 53% 30.04 in 10.0 mi NNE 4.6 mph - N/A   Clear
6:53 AM 54.0 °F 37.0 °F 53% 30.06 in 10.0 mi NNE 3.5 mph - N/A   Clear
7:53 AM 51.1 °F 39.0 °F 63% 30.08 in 10.0 mi NNW 3.5 mph - N/A   Clear
8:53 AM 55.9 °F 39.9 °F 55% 30.11 in 10.0 mi North 4.6 mph - N/A   Clear
9:53 AM 57.0 °F 39.0 °F 51% 30.14 in 10.0 mi NNE 5.8 mph - N/A   Clear
10:53 AM 59.0 °F 39.0 °F 48% 30.15 in 10.0 mi ENE 3.5 mph - N/A   Clear
11:53 AM 61.0 °F 42.1 °F 50% 30.16 in 10.0 mi WSW 6.9 mph - N/A   Clear
12:53 PM 63.0 °F 43.0 °F 48% 30.15 in 10.0 mi Variable 4.6 mph - N/A   Clear
1:53 PM 64.9 °F 44.1 °F 47% 30.12 in 10.0 mi Variable 4.6 mph - N/A   Clear
2:53 PM 68.0 °F 41.0 °F 37% 30.09 in 10.0 mi NNW 4.6 mph - N/A   Clear
3:53 PM 66.0 °F 46.0 °F 48% 30.10 in 10.0 mi SW 5.8 mph - N/A   Clear
4:53 PM 66.0 °F 46.0 °F 48% 30.09 in 10.0 mi WSW 5.8 mph - N/A   Clear
5:53 PM 62.1 °F 48.9 °F 62% 30.07 in 10.0 mi West 3.5 mph - N/A   Clear
6:53 PM 59.0 °F 46.9 °F 64% 30.08 in 10.0 mi Calm Calm - N/A   Clear
7:53 PM 57.0 °F 46.0 °F 67% 30.07 in 10.0 mi Calm Calm - N/A   Clear
8:53 PM 52.0 °F 46.0 °F 80% 30.07 in 10.0 mi Calm Calm - N/A   Clear
9:53 PM 51.1 °F 46.0 °F 83% 30.07 in 10.0 mi Calm Calm - N/A   Clear
10:53 PM 48.0 °F 45.0 °F 89% 30.09 in 10.0 mi Calm Calm - N/A   Clear
11:53 PM 48.0 °F 45.0 °F 89% 30.08 in 10.0 mi Calm Calm - N/A   Clear